Location: Newark
(45.9456°N, 15.4064°E)
Time: 11:23:02
(UTC+00:00)

Transit 2A Rocket - Pass Details

Date: 27 January 2020
Orbit: 591 x 912 km, 66.7° (Epoch: 25 February)

Event Time Altitude Azimuth Distance (km) Brightness Sun altitude
Exits shadow 04:31:34 49° 303° (WNW) 773 4.6 -20.0°
Maximum altitude 04:31:40 49° 308° (NW) 772 4.6 -20.0°
Drops below altitude 10° 04:35:54 10° 24° (NNE) 1,962 7.3 -19.2°
Sets 04:38:17 0° 30° (NNE) 2,898 8.3 -18.8°
